When you browse on this site, cookies collect data to enhance your experience and personalize the content and advertising you see.
Visit our Privacy Policy to learn more. By continuing to use the site, you agree to this use of cookies and data.
  • In United Kingdom
  • List of Countries
  • For 7 days
  • Water Temperature
  • Weather Map
  • Weather Widgets
  • user-avatar
    Login

    Hourly Weather Dobrich

    Today, 14 November, Thursday

    Time Temperature Precipitation Wind Pressure Humidity
    00:00 +15°C° 0 mm 1 mps 737 mmHg 76%
    01:00 +15°C° 0 mm 1 mps 736 mmHg 78%
    02:00 +15°C° 0 mm 2 mps 736 mmHg 84%
    03:00 +14°C° 0 mm 2 mps 736 mmHg 87%
    04:00 +14°C° 0 mm 2 mps 736 mmHg 89%
    05:00 +14°C° 0 mm 2 mps 736 mmHg 92%
    06:00 +13°C° 0 mm 3 mps 736 mmHg 92%
    07:00 +13°C° 0 mm 3 mps 736 mmHg 93%
    08:00 +13°C° 0 mm 4 mps 736 mmHg 93%
    09:00 +14°C° 0 mm 4 mps 736 mmHg 87%
    10:00 +15°C° 0 mm 4 mps 736 mmHg 82%
    11:00 +17°C° 0 mm 4 mps 736 mmHg 76%
    12:00 +17°C° 0 mm 4 mps 736 mmHg 75%
    13:00 +18°C° 0 mm 4 mps 735 mmHg 74%
    14:00 +17°C° 0 mm 5 mps 735 mmHg 73%
    15:00 +17°C° 0 mm 4 mps 735 mmHg 78%
    16:00 +16°C° 0 mm 3 mps 735 mmHg 82%
    17:00 +16°C° 0 mm 3 mps 735 mmHg 87%
    18:00 +16°C° 0.2 mm 3 mps 735 mmHg 88%
    19:00 +16°C° 0.2 mm 3 mps 736 mmHg 88%
    20:00 +14°C° 0.2 mm 3 mps 736 mmHg 89%
    21:00 +14°C° 0.2 mm 3 mps 736 mmHg 86%
    22:00 +14°C° 0.2 mm 3 mps 736 mmHg 83%
    23:00 +14°C° 0.2 mm 3 mps 736 mmHg 79%

    Tomorrow, 15 November, Friday

    Time Temperature Precipitation Wind Pressure Humidity
    00:00 +14°C° 0 mm 3 mps 736 mmHg 83%
    01:00 +13°C° 0 mm 3 mps 736 mmHg 86%
    02:00 +13°C° 0 mm 4 mps 736 mmHg 90%
    03:00 +12°C° 0 mm 4 mps 737 mmHg 90%
    04:00 +12°C° 0 mm 3 mps 737 mmHg 91%
    05:00 +12°C° 0 mm 3 mps 737 mmHg 91%
    06:00 +12°C° 0 mm 3 mps 737 mmHg 90%
    07:00 +12°C° 0 mm 3 mps 738 mmHg 88%
    08:00 +13°C° 0 mm 2 mps 738 mmHg 87%
    09:00 +14°C° 0 mm 2 mps 739 mmHg 78%
    10:00 +16°C° 0 mm 2 mps 739 mmHg 70%
    11:00 +18°C° 0 mm 2 mps 740 mmHg 62%
    12:00 +18°C° 0 mm 2 mps 740 mmHg 58%
    13:00 +19°C° 0 mm 2 mps 740 mmHg 55%
    14:00 +19°C° 0 mm 2 mps 740 mmHg 52%
    15:00 +18°C° 0 mm 2 mps 740 mmHg 57%
    16:00 +17°C° 0 mm 2 mps 740 mmHg 62%
    17:00 +16°C° 0 mm 2 mps 740 mmHg 68%
    18:00 +16°C° 0 mm 2 mps 741 mmHg 72%
    19:00 +15°C° 0 mm 2 mps 741 mmHg 76%
    20:00 +15°C° 0 mm 2 mps 742 mmHg 80%
    21:00 +14°C° 0 mm 2 mps 742 mmHg 82%
    22:00 +14°C° 0 mm 2 mps 742 mmHg 84%
    23:00 +14°C° 0 mm 2 mps 742 mmHg 86%

    Day after tomorrow, 16 November, Saturday

    Time Temperature Precipitation Wind Pressure Humidity
    00:00 +14°C° 0 mm 2 mps 742 mmHg 87%
    01:00 +13°C° 0 mm 2 mps 742 mmHg 87%
    02:00 +13°C° 0 mm 2 mps 743 mmHg 88%
    03:00 +13°C° 0 mm 2 mps 743 mmHg 88%
    04:00 +13°C° 0 mm 2 mps 743 mmHg 87%
    05:00 +13°C° 0 mm 2 mps 743 mmHg 87%
    06:00 +13°C° 0 mm 2 mps 743 mmHg 86%
    07:00 +13°C° 0 mm 2 mps 743 mmHg 85%
    08:00 +13°C° 0 mm 2 mps 744 mmHg 84%
    09:00 +14°C° 0 mm 3 mps 744 mmHg 75%
    10:00 +17°C° 0 mm 3 mps 744 mmHg 67%
    11:00 +19°C° 0 mm 4 mps 744 mmHg 58%
    12:00 +19°C° 0 mm 4 mps 744 mmHg 57%
    13:00 +19°C° 0 mm 4 mps 744 mmHg 55%
    14:00 +20°C° 0 mm 4 mps 744 mmHg 54%
    15:00 +18°C° 0 mm 3 mps 744 mmHg 63%
    16:00 +17°C° 0 mm 3 mps 743 mmHg 72%
    17:00 +14°C° 0 mm 3 mps 743 mmHg 81%
    18:00 +14°C° 0 mm 3 mps 743 mmHg 85%
    19:00 +14°C° 0 mm 2 mps 743 mmHg 88%
    20:00 +14°C° 0 mm 2 mps 744 mmHg 91%
    21:00 +14°C° 0 mm 2 mps 744 mmHg 92%
    22:00 +13°C° 0 mm 2 mps 744 mmHg 92%
    23:00 +13°C° 0 mm 2 mps 744 mmHg 93%

    17 November, Sunday

    Time Temperature Precipitation Wind Pressure Humidity
    00:00 +13°C° 0 mm 2 mps 744 mmHg 93%
    01:00 +13°C° 0 mm 2 mps 743 mmHg 93%
    02:00 +13°C° 0 mm 2 mps 743 mmHg 93%
    03:00 +13°C° 0 mm 2 mps 743 mmHg 93%
    04:00 +12°C° 0 mm 2 mps 743 mmHg 93%
    05:00 +12°C° 0 mm 2 mps 743 mmHg 93%
    06:00 +11°C° 0 mm 3 mps 743 mmHg 93%
    07:00 +11°C° 0 mm 3 mps 743 mmHg 93%
    08:00 +11°C° 0 mm 3 mps 743 mmHg 93%
    09:00 +13°C° 0 mm 3 mps 743 mmHg 84%
    10:00 +14°C° 0 mm 4 mps 743 mmHg 75%
    11:00 +16°C° 0 mm 5 mps 743 mmHg 67%
    12:00 +17°C° 0 mm 4 mps 743 mmHg 65%
    13:00 +17°C° 0 mm 4 mps 742 mmHg 64%
    14:00 +18°C° 0 mm 4 mps 742 mmHg 63%
    15:00 +15°C° 0 mm 4 mps 742 mmHg 69%
    16:00 +14°C° 0 mm 4 mps 742 mmHg 76%
    17:00 +13°C° 0 mm 3 mps 741 mmHg 83%
    18:00 +12°C° 0 mm 3 mps 741 mmHg 87%
    19:00 +12°C° 0 mm 3 mps 741 mmHg 91%
    20:00 +11°C° 0 mm 3 mps 741 mmHg 95%
    21:00 +12°C° 0 mm 3 mps 741 mmHg 95%
    22:00 +12°C° 0 mm 3 mps 741 mmHg 95%
    23:00 +12°C° 0 mm 3 mps 741 mmHg 95%

    18 November, Monday

    Time Temperature Precipitation Wind Pressure Humidity
    00:00 +12°C° 0 mm 3 mps 741 mmHg 94%
    01:00 +12°C° 0 mm 4 mps 740 mmHg 92%
    02:00 +13°C° 0 mm 4 mps 740 mmHg 90%
    03:00 +13°C° 0 mm 4 mps 740 mmHg 90%
    04:00 +13°C° 0 mm 3 mps 740 mmHg 90%
    05:00 +13°C° 0 mm 3 mps 740 mmHg 90%
    06:00 +13°C° 0 mm 3 mps 740 mmHg 91%
    07:00 +13°C° 0 mm 3 mps 740 mmHg 93%
    08:00 +12°C° 0 mm 3 mps 740 mmHg 95%
    09:00 +14°C° 0 mm 4 mps 740 mmHg 86%
    10:00 +15°C° 0 mm 4 mps 740 mmHg 78%
    11:00 +17°C° 0 mm 5 mps 741 mmHg 69%
    12:00 +17°C° 0 mm 5 mps 740 mmHg 65%
    13:00 +19°C° 0 mm 4 mps 740 mmHg 62%
    14:00 +19°C° 0 mm 4 mps 740 mmHg 58%
    15:00 +18°C° 0 mm 4 mps 740 mmHg 63%
    16:00 +17°C° 0 mm 3 mps 740 mmHg 68%
    17:00 +16°C° 0 mm 3 mps 740 mmHg 73%
    18:00 +16°C° 0 mm 2 mps 741 mmHg 75%
    19:00 +15°C° 0 mm 2 mps 741 mmHg 77%
    20:00 +15°C° 0 mm 2 mps 741 mmHg 79%
    21:00 +14°C° 0 mm 2 mps 741 mmHg 79%
    22:00 +14°C° 0 mm 2 mps 741 mmHg 80%
    23:00 +14°C° 0 mm 2 mps 741 mmHg 81%

    19 November, Tuesday

    Time Temperature Precipitation Wind Pressure Humidity
    00:00 +14°C° 0 mm 2 mps 741 mmHg 82%
    01:00 +14°C° 0 mm 2 mps 741 mmHg 83%
    02:00 +13°C° 0 mm 2 mps 742 mmHg 84%
    03:00 +13°C° 0 mm 2 mps 742 mmHg 86%
    04:00 +13°C° 0 mm 2 mps 742 mmHg 87%
    05:00 +12°C° 0 mm 3 mps 742 mmHg 88%
    06:00 +12°C° 0 mm 3 mps 742 mmHg 89%
    07:00 +13°C° 0 mm 3 mps 742 mmHg 90%
    08:00 +13°C° 0 mm 3 mps 742 mmHg 91%
    09:00 +14°C° 0 mm 4 mps 742 mmHg 83%
    10:00 +17°C° 0 mm 4 mps 742 mmHg 75%
    11:00 +19°C° 0 mm 5 mps 743 mmHg 66%
    12:00 +19°C° 0 mm 5 mps 742 mmHg 63%
    13:00 +20°C° 0 mm 5 mps 742 mmHg 60%
    14:00 +20°C° 0 mm 5 mps 742 mmHg 57%
    15:00 +19°C° 0 mm 4 mps 741 mmHg 63%
    16:00 +17°C° 0 mm 3 mps 741 mmHg 69%
    17:00 +16°C° 0 mm 3 mps 741 mmHg 75%
    18:00 +16°C° 0 mm 3 mps 741 mmHg 76%
    19:00 +14°C° 0 mm 3 mps 741 mmHg 78%
    20:00 +14°C° 0 mm 3 mps 741 mmHg 79%
    21:00 +13°C° 0 mm 3 mps 741 mmHg 80%
    22:00 +13°C° 0 mm 3 mps 741 mmHg 81%
    23:00 +13°C° 0 mm 3 mps 741 mmHg 82%
    Show more